Regional Weather Roundup
Issued by NWS

Home | Current Version | Previous Version | Text Only | Print | Product List | Glossary On
Versions: 1 2 3 4 5 6 7 8 9 10 11 12 13 14 15 16 17 18 19 20 21 22 23 24 25 26 27 28 29 30 31 32 33 34 35 36 37 38 39 40 41 42 43 44 45 46 47 48 49 50
000
ASUS46 KSEW 030410
RWRWA

WASHINGTON REGIONAL WEATHER ROUNDUP
NATIONAL WEATHER SERVICE SEATTLE WA
800 PM PST MON MAR 02 2015

NOTE:"FAIR" INDICATES FEW OR NO CLOUDS BELOW 12,000 FEET WITH NO
SIGNIFICANT WEATHER AND/OR OBSTRUCTIONS TO VISIBILITY.

WAZ505-507>509-030500-
SEATTLE, TACOMA, EVERETT, AND VICINITY

CITY           SKY/WX    TMP DP  RH WIND       PRES   REMARKS
EVERETT        FAIR      44  30  57 NW3       30.07R
BOEING FIELD   FAIR      49  30  48 CALM      30.08R
RENTON         FAIR      44  34  67 CALM      30.08R
SEATAC AIRPORT FAIR      43  30  60 N8        30.08R
JBLM-MCCHORD   FAIR      43  30  60 E2        30.08R
PUYALLUP       FAIR      43  30  61 CALM      30.08R
BREMERTON      FAIR      46  23  39 N6        30.10R
JBLM-FT LEWIS  FAIR      41  34  76 CALM      30.08R
TACOMA NARROWS FAIR      47  25  42 N6        30.08R
$$

WAZ001-503-506-510-514-515-030500-
NORTH INTERIOR

CITY           SKY/WX    TMP DP  RH WIND       PRES   REMARKS
BELLINGHAM     FAIR      46  15  28 NE13      30.10R
FRIDAY HARBOR  FAIR      44  34  67 NW5       30.13R
EASTSOUND      FAIR      37  36  93 CALM      30.11R
PORT ANGELES   FAIR      38  30  73 CALM      30.12R
NAS WHIDBEY    FAIR      48  36  63 N9        30.11R
ARLINGTON      FAIR      39  27  60 NW6       30.09R
BURLINGTON     CLEAR     41  36  81 NW8       30.10R
$$

WAZ020-022-039-040-504-511-512-030500-
SOUTHWEST INTERIOR

CITY           SKY/WX    TMP DP  RH WIND       PRES   REMARKS
SHELTON        FAIR      35  28  75 SE6       30.07R
OLYMPIA        FAIR      35  30  82 CALM      30.09R
CHEHALIS       FAIR      39  36  87 CALM      30.08S
KELSO          FAIR      43  30  61 CALM      30.10R
VANCOUVER      FAIR      49  29  46 NW6       30.04R
SCAPPOOSE, OR  FAIR      48  30  49 NW13      30.05R
PORTLAND, OR   FAIR      48  32  53 NW14      30.04R
$$

WAZ021-516-517-030500-
WASHINGTON COAST

CITY           SKY/WX    TMP DP  RH WIND       PRES   REMARKS
FORKS          FAIR      41  37  86 NE5       30.11R
HOQUIAM        FAIR      45  42  89 NE5       30.08R
ASTORIA, OR    MOCLDY    47  38  71 E3        30.10R
$$

WAZ019-023-024-040-518-519-030500-
CASCADE MOUNTAINS AND COLUMBIA GORGE

CITY           SKY/WX    TMP DP  RH WIND       PRES   REMARKS
TROUTDALE, OR  FAIR      50  29  44 NW6       30.02R
THE DALLES, OR CLOUDY    45  31  58 CALM      30.03R
$$

WAZ026-027-041>044-520-521-030500-
EAST SLOPES

CITY           SKY/WX    TMP DP  RH WIND       PRES   REMARKS
OMAK           FAIR      38  17  42 NW15      30.08R
WENATCHEE      FAIR      45   9  23 NE23G37   30.03R
ELLENSBURG     MOCLDY    36  32  85 NW3       30.01R
YAKIMA         CLOUDY    44  35  70 N10       30.05R
$$

WAZ028-034-035-030500-
COLUMBIA BASIN

CITY           SKY/WX    TMP DP  RH WIND       PRES   REMARKS
EPHRATA        FAIR      41  17  38 N22G30    30.02R
MOSES LAKE     FAIR      40  16  37 N22       30.02R
PASCO          MOCLDY    44  18  35 N15       30.02R
HERMISTON, OR  CLOUDY    44  28  53 SW3       30.02R
$$

WAZ036>038-030500-
NORTHEAST WASHINGTON

CITY           SKY/WX    TMP DP  RH WIND       PRES   REMARKS
SPOKANE GEIGER LGT SNOW  32  31  96 NE9       29.94R FOG
SPOKANE FELTS  CLOUDY    33  30  88 E5        29.97R
FAIRCHILD AFB  MIX PCPN  32  32 100 NE15G21   29.94R WCI  22
COEURDALENE,ID CLOUDY    30  21  69 N17G23    29.95R WCI  18
DEER PARK      LGT SNOW  31  28  89 N9        29.98R FOG
$$

WAZ029>033-030500-
SOUTHEAST WASHINGTON

CITY           SKY/WX    TMP DP  RH WIND       PRES   REMARKS
PULLMAN        CLOUDY    33  29  85 W3        29.92R
LEWISTON, ID   CLOUDY    39  32  76 CALM      29.95R
WALLA WALLA    MOCLDY    41  28  60 SE8       29.98R
PENDLETON, OR  MOCLDY    35  26  69 N3        29.98R
$$


USA.gov is the U.S. government's official web portal to all federal, state and local government web resources and services.